Keahole Point, HI

10:12 AM HST on July 27, 2017 (GMT -1000)
Kona International At Keahole

Weather History for PHKO - October, 2012

Change the Weather History Date:

Thursday, October 18, 2012

  Actual Average Record
Temperature  
Mean Temperature 80 °F -  
Max Temperature 84 °F 83 °F 93 °F (2000)
Min Temperature 75 °F 72 °F 71 °F (1982)
Cooling Degree Days 14    
Growing Degree Days 30 (Base 50)    
Moisture  
Dew Point 67 °F    
Average Humidity 63    
Maximum Humidity 76    
Minimum Humidity 55    
Precipitation  
Precipitation 0.00 in - - ()
Sea Level Pressure  
Sea Level Pressure 29.95 in    
Wind  
Wind Speed 6 mph (WSW)    
Max Wind Speed 12 mph    
Max Gust Speed -    
Visibility 10 miles    
Events      
Averages and records for this station are not official NWS values.
T = Trace of Precipitation, MM = Missing Value Source: NWS Daily Summary

Daily Weather History Graph

Daily Weather History Graph

Search for Another Location

Airport or City:

Trip Planner

Search our weather history database for the weather conditions in past years. The results will help you decide how hot, cold, wet, or windy it might be!

Date:

Astronomy

Oct. 18, 2012 Rise Set
Actual Time 6:20 AM HST 5:58 PM HST
Civil Twilight 5:57 AM HST 6:20 PM HST
Nautical Twilight 5:32 AM HST 6:46 PM HST
Astronomical Twilight 5:06 AM HST 7:11 PM HST
Moon 9:47 AM HST (10/18) 9:10 PM HST (10/18)
Length of Visible Light 12h 22m
Length of Day
11h 38m
Waxing Crescent, 16% of the Moon is Illuminated
Oct 18
Waxing Crescent
Oct 21
First Quarter
Oct 29
Full
Nov 6
Last Quarter
Nov 13
New

Hourly Weather History & Observations

Time (HST) Temp. Heat Index Dew Point Humidity Pressure Visibility Wind Dir Wind Speed Gust Speed Precip Events Conditions
12:53 AM 75.0 °F - 66.9 °F 76% 29.96 in 10.0 mi NE 5.8 mph - N/A   Partly Cloudy
1:53 AM 75.0 °F - 64.9 °F 71% 29.95 in 10.0 mi East 3.5 mph - N/A   Clear
2:53 AM 75.9 °F - 64.0 °F 67% 29.95 in 10.0 mi ENE 4.6 mph - N/A   Mostly Cloudy
3:53 AM 75.9 °F - 63.0 °F 64% 29.94 in 10.0 mi East 5.8 mph - N/A   Clear
4:53 AM 75.9 °F - 64.0 °F 67% 29.95 in 10.0 mi East 3.5 mph - N/A   Mostly Cloudy
5:53 AM 75.9 °F - 64.9 °F 69% 29.96 in 10.0 mi Calm Calm - N/A   Partly Cloudy
6:53 AM 75.0 °F - 64.0 °F 69% 29.96 in 10.0 mi East 5.8 mph - N/A   Clear
7:53 AM 81.0 °F 82.7 °F 64.9 °F 58% 29.97 in 10.0 mi Calm Calm - N/A   Clear
8:53 AM 82.0 °F 84.1 °F 66.0 °F 58% 29.97 in 10.0 mi West 5.8 mph - N/A   Clear
9:53 AM 82.9 °F 85.8 °F 68.0 °F 60% 29.98 in 10.0 mi WSW 8.1 mph - N/A   Clear
10:53 AM 84.9 °F 87.6 °F 66.9 °F 55% 29.96 in 10.0 mi SW 8.1 mph - N/A   Clear
11:53 AM 82.9 °F 86.5 °F 69.1 °F 63% 29.94 in 10.0 mi WSW 10.4 mph - N/A   Clear
12:53 PM 84.9 °F 88.8 °F 69.1 °F 59% 29.91 in 10.0 mi SW 11.5 mph - N/A   Clear
1:53 PM 84.9 °F 88.8 °F 69.1 °F 59% 29.89 in 10.0 mi WSW 10.4 mph - N/A   Clear
2:53 PM 84.0 °F 87.0 °F 68.0 °F 58% 29.89 in 10.0 mi WSW 10.4 mph - N/A   Mostly Cloudy
3:53 PM 82.0 °F 84.1 °F 66.0 °F 58% 29.89 in 10.0 mi SW 8.1 mph - N/A   Overcast
4:53 PM 82.0 °F 84.1 °F 66.0 °F 58% 29.91 in 10.0 mi SW 8.1 mph - N/A   Overcast
5:53 PM 81.0 °F 83.8 °F 68.0 °F 65% 29.92 in 10.0 mi WSW 6.9 mph - N/A   Overcast
6:53 PM 81.0 °F 83.8 °F 68.0 °F 65% 29.95 in 10.0 mi SW 6.9 mph - N/A   Overcast
7:53 PM 81.0 °F 83.8 °F 68.0 °F 65% 29.97 in 10.0 mi West 3.5 mph - N/A   Overcast
8:53 PM 81.0 °F 83.3 °F 66.9 °F 62% 29.98 in 10.0 mi West 9.2 mph - N/A   Overcast
9:53 PM 81.0 °F 83.8 °F 68.0 °F 65% 29.99 in 10.0 mi West 10.4 mph - N/A   Mostly Cloudy
10:53 PM 81.0 °F 83.8 °F 68.0 °F 65% 29.99 in 10.0 mi WNW 6.9 mph - N/A   Mostly Cloudy
11:53 PM 80.1 °F 82.3 °F 66.9 °F 64% 29.99 in 10.0 mi West 6.9 mph - N/A   Overcast